Torna al catalogo

STARLINK-3132

AttivoComunicazioniVLEO
NORAD 49457·PAYLOAD·🇺🇸 United States

Lanciato Nov 13, 2021 da Cape Canaveral Space Force Station

Loading…

Prossimi Passaggi (prossime 24 ore)

TLE

AggiornatoSource: CelesTrak SupGP

Epoca: Sep 14, 2026, 20:50 UTC

1 49457C 21104BB  26257.86854167  .00023761  00000+0  76426-3 0  2577
2 49457  53.1585  78.0659 0001204  82.7328  55.4758 15.31683829    11

Traccia STARLINK-3132 in tempo reale con AllMySat

Download on the App Store